Temperature
26 24 24 25 25 26 25 25 24 24 25 24 23 23 22 22 22 22 22 22 22 23 23 22 22 22 21 21 21 20 20 20 20 19 19 19 19 19 19 18 18 18 18 18
24 24 25 26 25 26 25 25 25 25 25 24 23 23 23 22 22 23 22 23 23 23 23 22 22 22 22 21 21 21 20 20 20 20 19 19 19 19 19 18 18 18 18 18
25 25 26 26 26 26 25 25 25 25 24 24 24 23 23 22 23 23 23 23 23 23 24 23 23 22 22 22 21 21 21 20 20 20 19 19 19 19 19 19 19 18 18 18
25 25 26 26 26 26 25 25 25 25 23 22 23 22 22 22 22 22 23 23 24 24 24 24 23 23 23 22 22 21 21 21 20 20 20 19 19 19 19 19 19 18 18 18
25 26 26 26 26 26 25 25 24 24 22 22 22 22 22 21 22 22 22 23 24 25 25 24 24 24 23 23 22 22 21 21 20 20 20 20 19 19 19 19 19 19 18 18
25 26 26 26 26 26 25 23 22 20 20 22 22 22 22 20 21 22 23 24 24 25 25 25 24 24 23 23 22 22 21 21 21 20 20 20 20 19 19 19 19 19 18 18
25 25 26 26 26 25 24 22 21 22 21 21 21 22 21 22 22 23 23 24 25 25 25 25 24 24 24 23 23 22 22 22 21 21 20 20 20 20 19 19 19 19 19 18
24 24 25 26 26 24 23 22 22 22 21 21 21 21 22 23 23 24 24 25 25 25 25 25 25 25 25 24 24 23 22 22 22 21 21 20 20 20 20 19 19 19 19 19
22 23 25 26 26 24 23 22 21 20 20 21 21 21 22 23 23 23 24 24 25 25 26 25 25 25 25 24 24 23 23 23 22 22 21 21 20 20 20 20 19 19 19 19
22 23 24 25 25 24 23 20 19 19 20 21 22 22 22 23 23 23 22 24 25 25 26 25 25 25 25 25 24 24 23 23 22 22 21 21 21 20 20 20 20 19 19 19
22 23 24 24 25 24 22 21 18 17 19 20 21 22 22 22 22 22 22 24 25 25 26 25 26 25 25 25 24 24 24 23 22 22 22 21 21 20 20 20 20 19 19 18
20 19 21 22 23 23 23 21 19 21 20 18 20 21 23 22 22 22 23 24 25 25 26 26 26 25 25 25 24 24 24 23 23 22 22 21 21 21 20 20 20 19 19 18
20 19 21 22 22 23 23 21 19 18 17 17 20 22 22 21 21 22 23 24 25 25 25 25 25 25 25 25 24 24 24 23 23 22 22 21 21 21 20 20 20 19 19 19
19 18 20 21 21 21 23 22 19 19 19 18 19 22 22 21 21 21 22 24 24 25 25 25 25 25 25 24 24 24 24 23 23 22 22 21 21 21 20 20 20 19 19 19
19 19 20 20 21 22 23 23 21 21 20 20 21 21 22 21 21 21 22 23 23 24 24 25 25 25 25 24 24 24 24 23 23 22 22 22 21 21 20 20 20 19 19 19
16 19 20 21 21 22 22 22 22 22 21 21 21 21 20 20 21 21 21 22 22 23 24 24 25 25 25 25 24 24 24 23 23 22 22 21 21 21 20 20 20 19 19 18
15 17 18 19 20 22 21 21 21 21 20 21 21 21 20 19 19 20 21 21 22 23 23 24 24 24 24 24 24 24 23 23 22 22 21 21 21 20 20 20 19 19 19 18
15 15 15 17 20 21 20 20 21 21 20 19 20 19 19 19 20 21 22 22 22 23 23 23 23 24 24 24 23 23 23 22 22 22 21 21 20 20 20 19 19 19 18 18
14 15 14 15 18 19 20 20 20 20 20 19 19 18 18 19 20 20 22 22 22 23 23 23 23 23 23 23 23 23 23 22 22 22 21 21 20 20 20 19 19 19 18 18
13 14 14 15 18 19 20 20 20 20 20 19 18 18 18 19 19 19 21 22 22 22 22 23 23 23 23 23 22 22 22 22 22 21 21 21 20 20 20 19 19 18 18 18
15 14 15 15 17 17 18 19 20 20 19 19 19 18 18 18 19 20 21 21 22 22 22 22 22 22 22 22 22 22 22 22 21 21 20 20 20 19 19 19 18 18 18 17
15 14 14 14 16 17 18 18 18 18 19 19 19 19 19 20 20 20 20 21 21 21 22 22 22 22 22 22 21 21 21 21 21 20 20 19 19 19 19 18 18 18 17 17
13 14 13 14 15 16 16 17 19 19 19 19 20 20 20 19 19 19 20 20 20 21 21 21 21 21 21 21 21 21 21 20 20 20 19 19 19 18 18 18 18 17 17 17
13 12 12 13 14 15 17 18 19 19 20 20 20 20 20 19 19 19 19 19 20 20 20 20 20 20 20 20 20 20 20 19 19 19 19 18 18 18 18 17 17 17 17 16
13 13 13 13 14 15 17 17 18 19 19 19 19 20 19 19 19 19 19 19 19 19 19 19 20 19 19 19 19 19 19 19 19 19 18 18 18 17 17 17 17 17 17 16
12 13 13 14 14 14 16 17 18 18 19 19 19 19 19 19 19 18 18 19 19 19 19 19 19 19 18 18 18 18 19 18 18 18 18 17 17 16 16 16 16 16 16 15
Wind_Speed
4 5 3 7 8 6 6 5 5 5 4 6 6 6 7 10 10 10 9 9 9 10 8 7 7 7 6 6 6 6 6 5 4 2 2 2 1 0 0 1 2 2 3 3
5 2 7 5 5 4 5 4 3 1 2 5 3 4 4 9 11 11 12 11 11 9 6 7 7 7 8 8 7 6 7 6 5 3 3 2 2 1 1 0 0 1 2 3
7 6 4 4 3 3 3 6 5 4 3 4 3 3 2 4 6 7 8 9 10 12 11 10 10 9 9 9 9 8 7 7 6 5 3 2 2 2 1 1 0 0 1 2
5 4 3 4 3 5 4 5 7 7 6 1 3 3 6 4 5 8 10 10 11 11 11 10 11 10 11 11 9 8 7 7 6 6 5 5 3 2 2 1 1 0 1 1
5 3 3 4 5 6 4 3 5 5 6 3 2 2 7 1 6 10 11 11 12 11 12 13 13 13 11 10 9 8 7 7 6 6 7 5 4 3 1 1 1 0 0 0
4 3 4 5 2 5 6 8 8 7 5 1 3 3 6 5 8 8 9 10 11 11 12 12 11 10 9 8 8 8 8 7 6 7 7 7 6 5 3 2 2 1 0 0
3 3 2 3 3 3 6 7 4 4 3 5 2 3 8 8 8 10 10 10 10 9 10 11 12 12 11 10 10 9 9 8 7 7 7 7 7 6 6 5 4 3 2 1
4 5 4 5 7 7 5 9 9 6 6 4 1 6 8 6 6 7 7 7 6 7 9 11 12 12 12 12 11 10 10 9 8 8 7 6 7 5 5 5 5 4 3 3
7 6 5 3 4 10 7 4 7 8 4 1 5 6 8 3 2 4 5 5 6 8 9 10 10 11 11 11 12 12 11 9 9 9 8 7 7 6 6 5 5 4 3 3
9 5 4 2 4 4 6 10 7 7 7 3 5 5 5 6 6 5 5 6 7 6 7 8 9 10 10 10 9 10 10 10 8 8 8 7 7 7 6 5 5 4 4 3
7 6 3 2 4 6 5 6 6 6 6 7 4 7 7 10 8 8 8 6 6 6 7 7 8 8 8 8 8 9 9 8 7 7 7 6 6 6 5 5 5 5 4 4
6 6 3 5 4 2 5 8 8 7 5 5 5 7 6 7 7 7 7 6 5 6 5 6 6 7 7 8 8 8 8 8 7 7 6 6 6 6 6 5 5 5 5 4
7 7 2 4 4 2 3 4 5 7 6 6 6 7 4 1 3 5 6 5 4 4 4 4 5 6 7 8 8 8 8 9 7 7 7 6 6 6 6 6 5 5 5 5
6 5 7 10 8 5 3 4 6 7 5 6 7 7 5 3 4 4 5 5 4 4 4 5 5 4 5 6 6 7 7 7 7 7 7 8 7 7 7 6 6 6 6 5
5 5 5 5 4 4 3 4 7 6 9 9 9 8 9 8 7 6 5 4 4 3 3 4 5 5 5 5 5 6 6 7 7 8 8 7 6 6 6 6 6 6 6 6
4 5 3 1 1 3 2 3 5 5 5 6 4 7 7 4 3 3 4 5 5 4 4 4 4 5 6 6 6 6 6 6 7 8 8 6 6 6 6 6 6 6 5 5
2 5 5 3 1 2 3 5 5 4 4 7 8 8 3 2 4 5 5 5 5 5 4 3 4 5 6 7 7 7 7 6 7 7 7 6 6 6 6 6 5 6 6 5
5 4 4 4 4 5 8 3 3 5 3 3 4 4 4 4 3 2 3 4 4 4 4 4 3 2 3 4 5 5 5 7 8 7 7 7 7 7 6 6 6 6 5 5
5 7 5 5 5 4 6 1 4 5 3 3 3 2 3 3 4 3 0 2 3 3 3 3 2 2 2 4 5 5 5 6 7 7 7 7 7 7 7 7 6 5 5 5
4 5 6 5 6 8 7 3 2 4 3 3 4 5 5 4 2 3 1 1 1 1 1 2 2 3 2 2 4 6 5 5 6 7 7 7 7 8 8 7 6 5 5 5
3 3 4 5 4 6 6 4 3 6 7 3 4 5 5 4 4 3 0 1 0 1 1 3 4 3 2 2 5 5 4 5 5 4 5 6 6 7 7 6 5 5 5 4
5 5 5 5 4 7 3 3 6 6 2 3 3 4 4 3 2 2 2 1 1 2 2 3 4 2 1 2 4 3 3 3 2 3 4 5 6 5 5 5 5 5 5 5
4 6 6 6 6 4 2 3 3 3 3 3 3 3 5 4 2 2 2 1 2 2 2 3 4 3 1 1 3 3 3 1 3 4 4 4 5 5 5 6 6 5 5 5
2 2 3 1 4 3 2 1 1 1 2 2 3 4 5 4 3 2 2 2 2 2 2 2 3 2 1 1 0 2 1 2 3 3 3 3 4 5 5 5 5 5 6 6
3 2 2 1 3 2 3 2 1 2 3 4 4 3 3 4 3 2 1 0 0 1 1 1 2 1 1 2 2 1 1 2 2 2 2 3 4 5 5 4 4 6 6 7
3 4 4 5 6 4 4 3 1 3 3 3 3 2 1 3 3 2 1 1 1 1 1 1 1 1 1 2 2 2 1 1 2 2 2 2 3 4 4 4 3 4 5 6
Wind_Direction
61 84 171 199 190 181 171 176 216 233 188 166 200 216 200 184 188 196 203 206 209 213 211 191 183 176 170 172 172 176 172 170 150 139 144 142 180 207 216 205 197 198 202 185
55 235 221 188 172 151 163 181 217 295 145 161 200 250 215 193 200 200 202 207 210 212 203 190 184 179 182 184 184 184 186 180 173 167 156 153 151 169 192 201 134 184 185 187
183 224 177 150 161 168 207 191 194 173 93 64 88 328 238 229 215 212 212 210 208 206 202 196 191 191 187 192 194 195 192 187 181 166 133 107 80 55 50 53 41 234 182 174
213 237 170 161 196 169 245 221 172 149 126 180 122 247 275 235 228 220 220 214 215 212 200 195 195 193 195 201 195 191 187 187 182 167 165 162 167 188 209 190 181 175 156 166
225 195 165 188 208 171 203 107 116 118 118 83 47 164 282 250 240 238 226 219 218 211 202 198 199 199 198 195 188 187 181 187 183 177 175 172 182 193 177 153 149 128 37 110
229 230 196 192 162 144 126 77 61 55 75 122 227 175 271 230 222 236 227 219 216 211 205 200 196 191 192 186 182 179 180 192 186 183 182 184 190 188 179 182 184 191 199 249
294 293 238 152 99 70 104 98 51 15 17 249 244 197 248 246 224 218 223 224 219 208 200 195 189 190 191 186 184 182 184 195 190 188 193 196 196 190 193 196 196 195 199 216
181 267 237 185 174 173 167 143 157 182 207 256 262 229 253 259 243 228 223 223 215 202 196 196 195 192 191 190 186 185 189 197 192 194 201 200 196 193 200 198 194 198 206 213
174 236 278 234 180 143 138 167 156 131 134 134 272 280 300 284 248 230 226 218 216 203 192 193 193 192 189 188 190 190 191 197 196 197 197 198 195 196 201 195 191 198 199 191
157 204 269 285 95 49 142 142 108 126 145 207 276 266 242 248 229 224 226 226 222 202 191 190 191 191 188 187 188 188 191 196 198 196 197 201 198 199 197 188 191 191 188 172
142 163 278 31 167 176 118 110 113 117 146 157 218 263 227 217 212 211 223 223 217 200 196 195 191 189 180 174 179 184 187 186 189 196 194 191 192 192 186 189 194 186 175 169
149 135 214 254 263 199 161 162 147 151 188 170 173 258 265 213 212 203 211 214 205 194 193 192 185 175 171 173 180 184 185 186 194 194 189 194 189 183 186 192 190 175 172 172
136 124 122 330 333 14 113 136 135 124 120 150 168 254 295 185 195 199 201 206 194 179 175 175 172 175 177 179 181 186 190 190 186 182 186 195 192 186 191 191 182 172 169 167
125 120 165 197 213 192 173 161 147 127 145 181 208 234 275 251 214 213 208 198 181 176 174 171 173 180 175 179 184 188 192 187 175 176 187 195 197 193 194 186 176 173 171 168
112 146 178 204 210 180 186 189 174 175 178 179 212 219 242 232 217 211 199 174 166 178 181 182 180 181 175 173 185 187 186 182 176 180 190 197 193 187 182 179 175 173 173 176
69 138 139 163 212 185 198 229 189 192 183 195 204 248 254 245 184 179 177 163 174 188 196 194 180 177 182 187 187 181 185 180 172 184 194 190 182 182 182 182 174 170 173 175
81 123 129 197 268 98 250 231 199 194 194 177 201 230 233 205 196 191 186 173 182 191 183 188 200 197 196 193 187 187 189 177 177 187 188 184 180 184 186 180 171 177 182 179
142 119 130 140 118 203 236 234 184 178 203 212 219 227 196 199 193 164 166 173 187 186 182 189 204 206 193 181 180 178 171 174 182 187 187 184 182 185 181 175 180 184 179 182
163 143 127 135 166 244 285 224 162 170 239 234 199 177 154 135 65 15 13 163 184 189 182 187 185 188 172 164 163 153 161 173 180 188 190 189 185 186 184 188 193 185 179 186
79 108 123 134 156 210 233 248 206 137 245 257 177 171 164 115 126 249 263 133 118 112 135 135 110 98 106 149 148 149 164 170 191 200 199 193 189 190 193 195 193 186 186 194
80 80 133 154 184 241 249 272 130 161 227 233 175 173 164 172 196 219 357 43 65 117 107 111 107 111 137 139 137 150 169 197 205 193 189 188 192 196 195 189 184 179 184 186
165 150 165 149 172 237 274 142 170 206 197 156 156 156 148 143 124 101 94 97 103 102 99 109 112 110 99 120 133 145 205 230 188 174 183 190 192 196 190 182 182 178 180 188
183 186 176 182 206 247 264 212 227 165 151 165 155 146 131 121 111 87 73 67 71 86 92 99 114 109 75 120 145 176 232 210 169 180 190 198 191 191 189 191 189 186 188 197
255 144 135 206 269 280 303 314 15 130 154 157 136 132 124 126 127 100 77 57 51 59 82 93 103 107 65 360 198 199 218 174 168 184 196 201 201 199 197 195 193 194 198 202
237 168 147 225 262 322 335 336 7 67 81 87 89 104 127 135 142 142 120 6 55 47 26 77 120 127 353 342 343 2 85 142 154 175 189 197 207 207 202 201 202 207 214 209
231 185 170 219 224 199 240 263 190 115 108 121 115 97 109 149 165 154 170 286 315 50 51 35 26 49 19 340 330 323 34 132 165 184 208 213 213 209 205 207 225 229 225 224
Height
1484 1492 1499 1496 1495 1497 1501 1507 1511 1507 1500 1505 1509 1510 1508 1509 1512 1514 1516 1517 1519 1520 1522 1525 1527 1529 1531 1533 1534 1535 1537 1538 1539 1540 1541 1542 1543 1544 1545 1546 1546 1547 1547 1548
1491 1495 1489 1488 1491 1495 1500 1506 1508 1504 1500 1505 1510 1510 1507 1507 1508 1509 1512 1514 1516 1518 1520 1523 1525 1527 1529 1531 1533 1535 1536 1537 1539 1540 1541 1542 1543 1544 1545 1546 1546 1547 1547 1548
1492 1489 1484 1488 1492 1497 1500 1504 1505 1507 1505 1506 1511 1515 1510 1507 1507 1509 1510 1511 1513 1515 1517 1520 1522 1525 1527 1529 1531 1533 1535 1536 1538 1539 1541 1542 1543 1543 1544 1545 1546 1546 1547 1547
1487 1483 1484 1487 1491 1493 1503 1493 1496 1502 1513 1522 1517 1533 1515 1508 1507 1506 1506 1508 1509 1511 1514 1516 1519 1521 1524 1527 1529 1531 1533 1535 1537 1538 1540 1541 1541 1542 1543 1544 1545 1546 1546 1547
1486 1482 1483 1488 1487 1488 1493 1490 1496 1503 1514 1524 1522 1530 1521 1510 1509 1504 1502 1503 1504 1507 1510 1512 1515 1518 1521 1524 1527 1530 1532 1534 1535 1537 1538 1539 1540 1541 1543 1543 1544 1545 1546 1546
1481 1479 1479 1481 1481 1483 1488 1496 1504 1514 1522 1536 1526 1530 1525 1513 1504 1499 1497 1498 1500 1502 1505 1508 1512 1515 1519 1522 1525 1527 1530 1532 1534 1535 1536 1538 1539 1540 1541 1542 1543 1544 1544 1545
1485 1480 1477 1478 1484 1486 1490 1509 1531 1535 1543 1539 1524 1526 1520 1498 1493 1492 1492 1493 1495 1498 1501 1504 1508 1511 1515 1518 1521 1524 1527 1529 1532 1533 1535 1536 1537 1538 1539 1541 1542 1542 1543 1543
1496 1497 1479 1476 1481 1489 1493 1503 1528 1541 1545 1538 1527 1526 1507 1491 1488 1488 1489 1490 1493 1495 1497 1500 1504 1508 1511 1515 1518 1521 1524 1527 1529 1530 1532 1534 1535 1536 1537 1539 1540 1540 1541 1542
1496 1495 1476 1473 1474 1480 1494 1501 1503 1524 1532 1537 1531 1518 1501 1488 1487 1487 1487 1488 1489 1491 1494 1497 1501 1505 1508 1511 1515 1518 1521 1524 1526 1528 1530 1531 1533 1534 1536 1537 1538 1539 1539 1540
1481 1490 1479 1475 1475 1479 1483 1495 1511 1524 1539 1542 1529 1521 1512 1493 1488 1486 1486 1485 1486 1489 1491 1494 1498 1502 1505 1508 1512 1515 1518 1521 1523 1525 1527 1529 1530 1532 1534 1535 1536 1537 1537 1538
1475 1487 1485 1480 1481 1485 1490 1497 1507 1520 1522 1537 1538 1523 1490 1487 1483 1484 1483 1483 1484 1487 1489 1492 1495 1499 1502 1506 1509 1512 1515 1518 1521 1523 1525 1526 1528 1530 1531 1532 1533 1534 1535 1536
1474 1487 1495 1486 1477 1476 1479 1488 1500 1512 1521 1526 1528 1517 1479 1479 1479 1479 1481 1482 1483 1485 1488 1491 1493 1496 1499 1502 1506 1509 1512 1514 1517 1520 1522 1524 1526 1527 1529 1530 1531 1532 1533 1534
1472 1487 1500 1498 1492 1482 1482 1486 1491 1501 1516 1526 1526 1510 1478 1477 1478 1478 1479 1480 1482 1484 1487 1490 1492 1494 1497 1500 1503 1507 1509 1511 1514 1517 1519 1521 1523 1524 1526 1527 1528 1529 1530 1531
1466 1483 1492 1500 1495 1486 1484 1485 1490 1496 1511 1518 1512 1498 1483 1479 1478 1478 1478 1479 1481 1483 1485 1488 1490 1492 1495 1498 1501 1504 1506 1509 1511 1514 1516 1517 1520 1522 1523 1525 1526 1527 1528 1529
1465 1480 1481 1481 1478 1479 1480 1481 1485 1488 1493 1500 1495 1493 1481 1477 1476 1476 1477 1478 1480 1482 1484 1486 1488 1491 1493 1496 1499 1502 1504 1506 1508 1511 1513 1515 1517 1519 1520 1522 1523 1524 1525 1526
1469 1477 1479 1480 1477 1478 1480 1479 1480 1481 1484 1486 1486 1486 1474 1473 1474 1475 1477 1478 1479 1480 1482 1484 1486 1489 1491 1493 1496 1499 1502 1504 1506 1508 1510 1512 1514 1516 1517 1518 1519 1520 1522 1523
1475 1478 1485 1489 1482 1480 1489 1479 1478 1479 1478 1480 1484 1479 1473 1473 1472 1472 1474 1476 1478 1479 1481 1483 1485 1486 1488 1491 1493 1497 1500 1502 1504 1506 1507 1509 1511 1513 1514 1515 1516 1518 1519 1520
1474 1481 1489 1492 1489 1498 1483 1470 1471 1473 1474 1474 1473 1471 1471 1471 1470 1471 1473 1475 1476 1478 1479 1481 1483 1485 1486 1489 1492 1495 1498 1499 1501 1502 1504 1506 1508 1509 1511 1512 1513 1514 1515 1516
1467 1477 1490 1496 1496 1490 1476 1469 1470 1474 1475 1471 1471 1470 1471 1471 1471 1472 1473 1475 1476 1477 1479 1480 1482 1484 1485 1487 1490 1492 1495 1497 1498 1499 1501 1503 1505 1506 1507 1508 1509 1510 1512 1513
1469 1472 1485 1493 1493 1495 1477 1465 1465 1470 1477 1468 1468 1469 1470 1470 1476 1474 1473 1474 1475 1476 1478 1480 1481 1483 1485 1486 1488 1490 1491 1493 1494 1496 1498 1500 1501 1503 1504 1505 1506 1507 1508 1509
1476 1480 1484 1489 1488 1482 1468 1464 1465 1480 1476 1466 1465 1466 1468 1469 1472 1473 1473 1473 1475 1476 1477 1478 1480 1482 1483 1485 1486 1488 1489 1490 1492 1494 1496 1497 1498 1499 1500 1501 1503 1504 1505 1506
1475 1479 1484 1488 1488 1483 1463 1463 1467 1467 1462 1463 1464 1466 1467 1469 1470 1472 1473 1474 1475 1475 1476 1477 1478 1480 1482 1484 1484 1485 1487 1488 1490 1491 1492 1493 1495 1496 1497 1498 1499 1500 1501 1502
1471 1471 1473 1476 1476 1465 1462 1461 1461 1461 1461 1462 1464 1466 1467 1469 1471 1472 1472 1474 1475 1475 1476 1476 1478 1480 1481 1482 1483 1484 1485 1486 1487 1488 1489 1490 1491 1492 1493 1494 1495 1496 1497 1498
1466 1465 1468 1470 1466 1462 1461 1460 1460 1460 1461 1463 1464 1466 1467 1469 1470 1472 1472 1473 1474 1475 1476 1476 1477 1478 1479 1480 1481 1481 1482 1483 1484 1485 1485 1487 1487 1488 1489 1490 1491 1491 1492 1493
1465 1465 1466 1467 1464 1462 1460 1460 1461 1461 1462 1463 1465 1467 1468 1468 1470 1471 1472 1473 1473 1474 1475 1476 1476 1476 1476 1477 1478 1480 1480 1481 1481 1481 1481 1482 1483 1484 1484 1485 1486 1487 1488 1489
1462 1462 1464 1464 1460 1461 1460 1460 1461 1461 1462 1464 1465 1466 1468 1469 1469 1470 1471 1472 1472 1472 1473 1474 1474 1474 1474 1475 1476 1476 1476 1477 1477 1477 1478 1478 1479 1480 1480 1481 1482 1482 1483 1484